Home > Weather > Würzburg > Past weeks

Flag for Germany Weather for the Past 2 Weeks in Würzburg, Bavaria, Germany

Now
57 °F

Passing clouds.


Feels Like: 55 °F
Forecast: 43 / 59 °F
Wind: 9 mph from Northeast

Location: Niederstetten

Current Time: May 2, 2016 at 1:28:17 PM

Latest Report: May 2, 2016 at 12:20 PM


Visibility: N/A

Pressure: 30.18 "Hg

Humidity: 55%

Dew Point: 41 °F

Location of WürzburgLocation

Historic Weather in Würzburg — Graph

°F

Würzburg Temperature Yesterday

Maximum temperature yesterday: 59 °F (at 3:20 PM)
Minimum temperature yesterday: 45 °F (at 4:20 AM)
Average temperature yesterday: 52 °F

High & Low Weather Summary for the Past Weeks

 TemperatureHumidityPressure
High63 °F (Apr 21, 3:20 PM)100% (Apr 18, 2:20 AM)30.39 "Hg (Apr 18, 2:20 AM)
Low30 °F (Apr 24, 6:20 AM)30% (Apr 20, 3:20 PM)29.50 "Hg (Apr 26, 5:20 AM)
Average43 °F71%29.98 "Hg
* Reported Apr 17 11:20 AM — May 2 11:20 AM, Würzburg, Weather by CustomWeather, © 2016

Note: Actual official high and low records may vary slightly from our data, if they occured in-between our weather recording intervals... More about our weather records

Advertising

Würzburg Weather History for the Previous 24 Hours

Scroll right to see more
 ConditionsComfort  
Time TempWeatherWind HumidityBarometerVisibility
11:20 AM
Mon, May 2
55 °FPassing clouds.8 mph55%30.18 "HgN/A
10:20 AM55 °FPassing clouds.7 mph55%30.21 "HgN/A
9:20 AM52 °FCool.8 mph62%30.21 "HgN/A
8:20 AM48 °FCool.7 mph71%30.21 "HgN/A
6:20 AM41 °FPassing clouds.5 mph81%30.21 "HgN/A
5:20 AM41 °FPassing clouds.3 mph81%30.21 "HgN/A
4:20 AM43 °FPassing clouds.8 mph76%30.21 "HgN/A
3:20 AM45 °FPassing clouds.7 mph76%30.21 "HgN/A
2:20 AM45 °FPassing clouds.6 mph76%30.21 "HgN/A
1:20 AM46 °FPassing clouds.7 mph71%30.21 "HgN/A
12:20 AM48 °FPassing clouds.8 mph66%30.21 "HgN/A
11:20 PM
Sun, May 1
50 °FPartly cloudy.8 mph67%30.18 "HgN/A
10:20 PM50 °FPassing clouds.7 mph67%30.18 "HgN/A
9:20 PM54 °FPartly sunny.9 mph58%30.18 "HgN/A
8:20 PM55 °FMostly cloudy.9 mph55%30.15 "HgN/A
7:20 PM57 °FPartly sunny.8 mph51%30.12 "HgN/A
6:20 PM57 °FPartly sunny.10 mph51%30.09 "HgN/A
5:20 PM59 °FBroken clouds.10 mph51%30.09 "HgN/A
4:20 PM59 °FPartly sunny.14 mph51%30.07 "HgN/A
3:20 PM59 °FBroken clouds.12 mph51%30.07 "HgN/A
2:20 PM57 °FPartly sunny.13 mph55%30.04 "HgN/A
1:20 PM57 °FBroken clouds.12 mph55%30.04 "HgN/A
Weather by CustomWeather, © 2016

See weather overviewHow to use our weather pages